Regional Weather Roundup
Issued by NWS Jackson, KY

Home | Current Version | Previous Version | Text Only | Print | Product List | Glossary On
Versions: 1 2 3 4 5 6 7 8 9 10 11 12 13 14 15 16 17 18 19 20 21 22 23 24 25 26 27 28
000
ASUS43 KJKL 242010
RWRJKL

EAST KENTUCKY HOURLY WEATHER ROUNDUP
NATIONAL WEATHER SERVICE JACKSON KY
300 PM EST TUE JAN 24 2017

NOTE: "FAIR" INDICATES FEW OR NO CLOUDS BELOW 12,000 FEET WITH
NO SIGNIFICANT WEATHER AND/OR OBSTRUCTIONS TO VISIBILITY.

* THESE REPORTS ARE NOT UNDER NWS QUALITY CONTROL AND MAY NOT
  REPORT WEATHER SUCH AS PRECIPITATION AND FOG.

KYZ079-080-083-085-087-088-110-112-115-119-120-242100
...EASTERN KENTUCKY...

CITY           SKY/WX    TMP DP  RH WIND       PRES   REMARKS
JACKSON        CLOUDY    40  38  93 CALM      29.83F
LONDON         CLOUDY    41  35  79 SW8       29.85F
SOMERSET*      CLOUDY    41  34  75 CALM      29.87F
MONTICELLO*    CLOUDY    42  34  73 VRB6      29.88F
WILLIAMSBURG*  CLOUDY    41  39  93 NW3       29.85F
MIDDLESBORO*   CLOUDY    44  38  80 CALM      29.85F
HARLAN APT*    CLOUDY    41  37  87 CALM      29.84S
PIKE CO APT*   CLOUDY    41  41 100 W6        29.81S
BIG SANDY APT* CLOUDY    42  42  99 W6        29.82S
MOREHEAD APT*  CLOUDY    43  39  87 SW6       29.85S
ASHLAND*       CLOUDY    45  39  81 W8        29.80F
$$

KYZ035-036-041-042-044-050-067-078-099-242100
...CENTRAL KENTUCKY...

CITY           SKY/WX    TMP DP  RH WIND       PRES   REMARKS
MT STERLING*   CLOUDY    43  37  81 W7        29.85F
FLEMING/MASON* CLOUDY    43  39  85 W10       29.84S
DANVILLE*      CLOUDY    43  36  75 W3        29.86S
LEXINGTON      CLOUDY    44  35  70 W7        29.85S
FRANKFORT      CLOUDY    45  33  63 NW7       29.84S
LOUISVILLE     MOSUNNY   49  32  52 VRB3      29.85F
LEBANON*       MOCLDY    46  36  66 W3        29.86R
GLASGOW*       CLOUDY    44  36  72 SW5       29.88S
BOWLING GREEN  MOSUNNY   48  35  60 SW8       29.89S
$$

KYZ091>093-OHZ055-061-077-WVZ005-015-034-035-042-242100
...SOUTHERN OHIO/WEST VIRGINIA...

CITY           SKY/WX    TMP DP  RH WIND       PRES   REMARKS
COVINGTON      CLOUDY    43  35  73 W12       29.83R
COLUMBUS       CLOUDY    44  40  85 W12       29.76F
DAYTON         CLOUDY    41  35  79 W14       29.82R
WILMINGTON     CLOUDY    41  38  89 W10       29.81R
HUNTINGTON     CLOUDY    43  40  89 W12       29.81R
CHARLESTON     DRIZZLE   43  40  89 W8G20     29.78R
BECKLEY        CLOUDY    39  37  92 W13       29.74R WCI  31
BLUEFIELD      CLOUDY    37  36  96 W10G22    29.75R FOG     WCI  30
LOGAN CO APT*  FOG       41  41 100 W9        29.79R VSB<1/4
$$

VAZ002-007-008-TNZ017-027-036-066-071-242100
...SOUTHWEST VIRGINIA/EAST TENNESSEE...

CITY           SKY/WX    TMP DP  RH WIND       PRES   REMARKS
WISE*          CLOUDY    41  41 100 NW6       29.81S
JONESVILLE*    CLOUDY    45  39  81 W6        29.86S
ABINGDON*      CLOUDY    44  42  96 W7        29.81S FOG
BRISTOL        CLOUDY    46  38  73 SW9       29.82S
MORRISTOWN*    MOCLDY    48  37  66 N8        29.82F
SEVIERVILLE*   PTCLDY    52  37  58 NW3       29.82F
KNOXVILLE      MOSUNNY   51  37  58 S5        29.83F
LAFOLLETTE*    PTCLDY    45  37  76 CALM      29.87F
OAK RIDGE      SUNNY     52  35  52 W5        29.85F
CROSSVILLE     SUNNY     44  35  70 W5        29.85S
NASHVILLE      SUNNY     52  34  50 SW8       29.88F
$$

...KEY TO REMARKS...
VSB - VISIBILITY IN MILES
WCI - WIND CHILL INDEX
HX  - HEAT INDEX

$$




USA.gov is the U.S. government's official web portal to all federal, state and local government web resources and services.